Location: Waco, TX
(31.5480°N, 97.1670°W)
Time: 21:41:58
(UTC-06:00)

ISS - Pass Details

Date: 13 February 2019
Orbit: 403 x 411 km, 51.6° (Epoch: 22 February)

Event Time Altitude Azimuth Distance (km) Brightness Sun altitude
Rises 10:58:14 0° 262° (W) 2,308 -0.2 38.6°
Reaches altitude 10° 11:00:53 10° 285° (WNW) 1,452 -1.3 38.9°
Maximum altitude 11:02:58 16° 325° (NW) 1,156 -1.8 39.2°
Drops below altitude 10° 11:05:04 10° 5° (N) 1,458 -1.3 39.4°
Sets 11:07:45 0° 29° (NNE) 2,321 -0.2 39.7°
